Location: Albany
(35.0000°S, 118.0000°E)
Time: 10:57:51
(UTC-04:00)

Vanguard 3 - Visible Passes

Search period start: 30 August 2016 00:00
Search period end: 09 September 2016 00:00
Orbit: 509 x 3265 km, 33.3° (Epoch: 29 August)

Date Brightness Start Highest point End Pass type
(mag) Time Alt. Az. Time Alt. Az. Time Alt. Az.
30 Aug 9.8 07:49:53 10° N 07:55:13 23° NNE 07:55:13 23° NNE visible
30 Aug 10.5 09:58:14 10° NW 09:59:52 17° NW 09:59:52 17° NW visible
30 Aug 10.9 12:39:09 29° E 12:39:09 29° E 12:46:19 10° E visible
30 Aug 9.8 14:43:45 77° NNW 14:43:45 77° NNW 15:02:24 10° ENE visible
30 Aug 10.2 16:48:21 26° W 16:59:49 48° NW 17:14:50 10° NNE visible
31 Aug 10.2 06:43:52 10° NE 06:44:31 10° NE 06:45:10 10° ENE visible
31 Aug 9.6 08:45:49 10° NNW 08:50:55 34° N 08:50:55 34° N visible
31 Aug11.011:29:48E11:29:48E10:55:34WNWvisible
31 Aug 10.3 13:34:25 50° ENE 13:34:25 50° ENE 13:46:48 10° ENE visible
31 Aug 9.9 15:39:02 53° WNW 15:43:54 62° NNW 16:01:18 10° NE visible
31 Aug 10.6 17:43:38 11° W 17:58:34 29° NW 18:11:03 10° N visible
01 Sep 9.6 07:34:31 10° N 07:41:43 27° NE 07:41:58 27° NE visible
01 Sep 10.0 09:43:15 10° NW 09:46:37 27° NW 09:46:37 27° NW visible
01 Sep 11.1 12:25:09 23° E 12:25:09 23° E 12:30:19 10° E visible
01 Sep 9.9 14:29:46 69° NNE 14:29:46 69° NNE 14:46:37 10° ENE visible
01 Sep 10.3 16:34:24 30° W 16:43:27 44° NW 16:58:58 10° NNE visible
02 Sep 10.0 06:26:12 10° NE 06:28:52 12° NE 06:31:56 10° ENE visible
02 Sep 9.2 08:30:48 10° NW 08:37:39 45° N 08:37:39 45° N visible
02 Sep 10.7 10:41:32 10° WNW 11:15:58 - E 10:42:18 13° WNW visible
02 Sep 10.5 13:20:36 40° ENE 13:20:36 40° ENE 13:30:52 10° ENE visible
02 Sep 9.9 15:25:14 56° NW 15:27:32 58° NNW 15:45:26 10° NE visible
02 Sep 10.7 17:29:51 13° W 17:42:15 26° NW 17:54:44 10° N visible
03 Sep 9.4 07:19:19 10° NNW 07:26:05 29° NE 07:28:40 26° ENE visible
03 Sep 9.6 09:28:22 10° WNW 09:33:18 39° NW 09:33:18 39° NW visible
03 Sep 11.3 12:11:30 16° E 12:11:30 16° E 12:14:10 10° E visible
03 Sep 10.1 14:16:08 57° NNE 14:16:08 57° NNE 14:30:39 10° ENE visible
03 Sep 10.3 16:20:46 33° WNW 16:27:03 39° NW 16:42:51 10° NNE visible
04 Sep 9.8 06:10:02 10° NNE 06:13:19 13° NE 06:17:17 10° ENE visible
04 Sep 8.9 08:15:53 10° NW 08:24:01 52° NNE 08:24:16 52° NE visible
04 Sep 10.3 10:26:40 10° WNW 10:28:54 21° WNW 10:28:54 21° WNW visible
04 Sep 10.8 13:07:06 31° ENE 13:07:06 31° ENE 13:14:47 10° ENE visible
04 Sep 10.0 15:11:45 53° NNW 15:11:45 53° NNW 15:29:20 10° NE visible
04 Sep 10.8 17:16:23 15° W 17:25:55 23° NW 17:38:03 10° N visible
05 Sep 9.1 07:04:14 10° NNW 07:10:34 31° NE 07:15:11 23° E visible
05 Sep 9.1 09:13:35 10° WNW 09:19:49 54° NW 09:19:49 54° NW visible
05 Sep 11.0 11:58:09 10° E 11:58:09 10° E 11:24:27 - W visible
05 Sep 10.4 14:02:47 44° NE 14:02:47 44° NE 14:14:31 10° NE visible
05 Sep 10.3 16:07:26 34° NW 16:10:39 35° NW 16:26:27 10° NNE visible
06 Sep 8.7 08:01:04 10° NW 08:08:35 55° NNE 08:10:42 49° ENE visible
06 Sep 10.0 10:11:52 10° W 10:15:19 29° W 10:15:19 29° W visible
06 Sep 11.1 12:53:53 21° ENE 12:53:53 21° ENE 12:58:33 10° ENE visible
06 Sep 10.2 14:58:31 45° N 14:58:31 45° N 15:13:01 10° NE visible
06 Sep 10.8 17:03:10 16° WNW 17:09:37 19° NW 17:20:53 10° N visible
07 Sep 8.9 06:49:17 10° NNW 06:55:11 34° NE 07:01:31 18° E visible
07 Sep 8.7 08:58:51 10° WNW 09:06:08 69° NNW 09:06:08 69° NNW visible
07 Sep 10.8 11:10:29 10° W 11:44:59 - ENE 11:10:45 11° W visible
07 Sep 10.7 13:49:38 32° NE 13:49:38 32° NE 13:58:11 10° NE visible
07 Sep 10.5 15:54:17 31° NW 15:54:18 31° NW 16:09:46 10° NNE visible
08 Sep 8.5 07:46:20 10° NW 07:53:16 59° NNE 07:56:54 42° E visible
08 Sep 9.6 09:57:08 10° W 10:01:31 37° W 10:01:31 37° W visible
08 Sep 11.4 12:40:46 13° ENE 12:40:46 13° ENE 12:42:12 10° ENE visible
08 Sep 10.5 14:45:26 35° N 14:45:26 35° N 14:56:27 10° NNE visible
08 Sep 10.9 16:50:04 15° WNW 16:53:25 16° NW 17:03:03 10° NNW visible
